CAPE
2 2 2 2 2 1 1 0 0 0 0 0 0 0 0 0 0 0 0 0 0 0 0 0 0 0 0 0 0 0 0 0 0 0 0 0 0 0 0 0 0 0 0 0 0 0 0
2 2 2 2 1 1 0 0 0 0 0 0 0 0 0 0 0 0 0 0 0 0 0 0 0 0 0 0 0 0 0 0 0 0 0 0 0 0 0 0 0 0 0 0 0 0 0
2 1 2 3 3 2 1 0 0 0 0 0 0 0 0 0 0 0 0 0 0 0 0 0 0 0 0 0 0 0 0 0 0 0 0 0 0 0 0 0 0 0 0 0 0 0 0
1 0 0 1 2 2 1 0 0 0 0 0 0 0 0 0 0 0 0 0 0 0 0 0 0 0 0 0 0 0 0 0 0 0 0 0 0 0 0 0 0 0 0 0 0 0 0
1 0 0 1 2 1 0 0 0 0 0 0 0 0 0 0 0 0 0 0 0 0 0 0 0 0 0 0 0 0 0 0 0 0 0 0 0 0 0 0 0 0 0 0 0 0 0
1 0 0 1 2 2 0 0 0 0 0 0 0 0 0 0 0 0 0 0 0 0 0 0 0 0 0 0 0 0 0 0 0 0 0 0 0 0 0 0 0 0 0 0 0 0 0
0 1 0 1 2 1 0 0 0 0 0 0 0 0 0 0 0 0 0 0 0 0 0 0 0 0 0 0 0 0 0 0 0 0 0 0 0 0 0 0 0 0 0 0 0 0 0
0 0 0 0 1 0 0 0 0 0 0 0 0 0 0 0 0 0 0 0 0 0 0 0 0 0 0 0 0 0 0 0 0 0 0 0 0 0 0 0 0 0 0 0 0 0 0
0 0 0 0 0 0 0 0 0 0 0 0 0 0 0 0 0 0 0 0 0 0 0 0 0 0 0 0 0 0 0 0 0 0 0 0 0 0 0 0 0 0 0 0 0 0 0
0 0 0 0 0 0 0 0 0 0 0 0 0 0 0 0 0 0 0 0 0 0 0 0 0 0 0 0 0 0 0 0 0 0 0 0 0 0 0 0 0 0 0 0 0 0 0
0 0 0 0 0 0 0 0 0 0 0 0 0 0 0 0 0 0 0 0 0 0 0 0 0 0 0 0 0 0 0 0 0 0 0 0 0 0 0 0 0 0 0 0 0 0 0
0 0 0 0 0 0 0 0 0 0 0 0 0 0 0 0 0 0 0 0 0 0 0 0 0 0 0 0 0 0 0 0 0 0 0 0 0 0 0 0 0 0 0 0 0 0 0
0 0 0 0 0 0 0 0 0 0 0 0 0 0 0 0 0 0 0 0 0 0 0 0 0 0 0 0 0 0 0 0 0 0 0 0 0 0 0 0 0 0 0 0 0 2 0
0 0 0 0 0 0 0 0 0 0 0 0 0 0 0 0 0 0 0 0 0 0 0 0 0 0 0 0 0 0 0 0 0 0 0 0 0 0 0 0 0 0 0 0 0 1 0
0 0 0 0 0 0 0 0 0 0 0 0 0 0 0 0 0 0 0 0 0 0 0 0 0 0 0 0 0 0 0 0 0 0 0 0 0 0 0 0 0 0 0 0 0 0 0
1 0 0 0 0 0 0 0 0 0 0 0 0 0 0 0 0 0 0 0 0 0 0 0 0 0 0 0 0 0 0 0 0 0 0 0 0 0 0 0 0 0 0 0 0 0 0
0 0 0 0 0 0 0 0 0 0 0 0 0 0 0 0 0 0 0 0 0 0 0 0 0 0 0 0 0 0 0 0 0 0 0 0 0 0 0 0 0 0 0 0 0 0 0
0 0 0 0 0 0 0 0 0 0 0 0 0 0 0 0 0 0 0 0 0 0 0 0 0 0 0 0 0 0 0 0 0 0 0 0 0 0 0 0 0 0 0 0 0 0 0
0 0 0 0 0 0 0 0 0 0 0 0 0 0 0 0 0 0 0 0 0 0 0 0 0 0 0 0 0 0 0 0 0 0 0 0 0 0 0 0 0 0 0 0 0 0 0
0 0 0 0 0 0 0 0 0 0 0 0 0 0 0 0 0 0 0 0 0 0 0 0 0 0 0 0 0 0 0 0 0 0 0 0 0 0 0 0 0 0 0 0 0 0 0
0 0 0 0 0 0 0 0 0 0 0 0 0 0 0 0 0 0 0 0 0 0 0 0 0 0 0 0 0 0 0 0 0 0 0 0 0 0 0 0 0 0 0 0 0 0 0
0 0 0 0 0 0 0 0 0 0 0 0 0 0 0 0 0 0 0 0 0 0 0 0 0 0 0 0 0 0 0 0 0 0 0 0 0 0 0 0 0 0 0 0 0 0 0
0 0 0 0 0 0 0 0 0 0 0 0 0 0 0 0 0 0 0 0 0 0 0 0 0 0 0 0 0 0 0 0 0 0 0 0 0 0 0 0 0 0 0 0 0 0 0
0 0 0 0 0 0 0 0 0 0 0 0 0 0 0 0 0 0 0 0 0 0 0 0 0 0 0 0 0 0 0 0 0 0 0 0 0 0 0 0 0 0 0 0 0 0 0
0 0 0 0 0 0 0 0 0 0 0 0 0 0 0 0 0 0 0 0 0 0 0 0 0 0 0 0 0 0 0 0 0 0 0 0 0 0 0 0 0 0 0 0 0 0 0
0 0 0 0 0 0 0 0 0 0 0 0 0 0 0 0 0 0 0 0 0 0 0 0 0 0 0 0 0 0 0 0 0 0 0 0 0 0 0 0 0 0 0 0 0 0 0
0 0 0 0 0 0 0 0 0 0 0 0 0 0 0 0 0 0 0 0 0 0 0 0 0 0 0 0 0 0 0 0 0 0 0 0 0 0 0 0 0 0 0 0 0 0 0
0 0 0 0 0 0 0 0 0 0 0 0 0 0 0 0 0 0 0 0 0 0 0 0 0 0 0 0 0 0 0 0 0 0 0 0 0 0 0 0 0 0 0 0 0 0 0
1 0 0 0 0 0 0 0 0 0 0 0 0 0 0 0 0 0 0 0 0 0 0 0 0 0 0 0 0 0 0 0 0 0 0 0 0 0 0 0 0 0 0 0 0 0 0
CIN
-0 -0 -0 -0 -0 -0 -0 -0 -0 -0 -0 -0 -0 -0 -0 -0 -0 -0 -0 -0 -0 -0 -0 -0 -0 -0 -0 -0 -0 -0 -0 -0 -0 -0 -0 -0 -0 -0 -0 -0 -0 -0 -0 -0 -0 -0 -0
-0 -0 -0 -0 -0 -0 -0 -0 -0 -0 -0 -0 -0 -0 -0 -0 -0 -0 -0 -0 -0 -0 -0 -0 -0 -0 -0 -0 -0 -0 -0 -0 -0 -0 -0 -0 -0 -0 -0 -0 -0 -0 -0 -0 -0 -0 -0
-0 -0 -0 -0 -0 -0 -0 -0 -0 -0 -0 -0 -0 -0 -0 -0 -0 -0 -0 -0 -0 -0 -0 -0 -0 -0 -0 -0 -0 -0 -0 -0 -0 -0 -0 -0 -0 -0 -0 -0 -0 -0 -0 -0 -0 -0 -0
-0 -0 -0 -0 -0 -0 -0 -0 -0 -0 -0 -0 -0 -0 -0 -0 -0 -0 -0 -0 -0 -0 -0 -0 -0 -0 -0 -0 -0 -0 -0 -0 -0 -0 -0 -0 -0 -0 -0 -0 -0 -0 -0 -0 -0 -0 -0
-0 -0 -0 -0 -0 -0 -0 -0 -0 -0 -0 -0 -0 -0 -0 -0 -0 -0 -0 -0 -0 -0 -0 -0 -0 -0 -0 -0 -0 -0 -0 -0 -0 -0 -0 -0 -0 -0 -0 -0 -0 -0 -0 -0 -0 -0 -0
-0 -0 -0 -0 -0 -0 -0 -0 -0 -0 -0 -0 -0 -0 -0 -0 -0 -0 -0 -0 -0 -0 -0 -0 -0 -0 -0 -0 -0 -0 -0 -0 -0 -0 -0 -0 -0 -0 -0 -0 -0 -0 -0 -0 -0 -0 -0
-0 -0 -0 -0 -0 -0 -0 -0 -0 -0 -0 -0 -0 -0 -0 -0 -0 -0 -0 -0 -0 -0 -0 -0 -0 -0 -0 -0 -0 -0 -0 -0 -0 -0 -0 -0 -0 -0 -0 -0 -0 -0 -0 -0 -0 -0 -0
-0 -0 -0 -0 -0 -0 -0 -0 -0 -0 -0 -0 -0 -0 -0 -0 -0 -0 -0 -0 -0 -0 -0 -0 -0 -0 -0 -0 -0 -0 -0 -0 -0 -0 -0 -0 -0 -0 -0 -0 -0 -0 -0 -0 -0 -0 -0
-0 -0 -0 -0 -0 -0 -0 -0 -0 -0 -0 -0 -0 -0 -0 -0 -0 -0 -0 -0 -0 -0 -0 -0 -0 -0 -0 -0 -0 -0 -0 -0 -0 -0 -0 -0 -0 -0 -0 -0 -0 -0 -0 -0 -0 -0 -0
-0 -0 -0 -0 -0 -0 -0 -0 -0 -0 -0 -0 -0 -0 -0 -0 -0 -0 -0 -0 -0 -0 -0 -0 -0 -0 -0 -0 -0 -0 -0 -0 -0 -0 -0 -0 -0 -0 -0 -0 -0 -0 -0 -0 -0 -0 -0
-0 -0 -0 -0 -0 -0 -0 -0 -0 -0 -0 -0 -0 -0 -0 -0 -0 -0 -0 -0 -0 -0 -0 -0 -0 -0 -0 -0 -0 -0 -0 -0 -0 -0 -0 -0 -0 -0 -0 -0 -0 -0 -0 -0 -0 -0 -0
-0 -0 -0 -0 -0 -0 -0 -0 -0 -0 -0 -0 -0 -0 -0 -0 -0 -0 -0 -0 -0 -0 -0 -0 -0 -0 -0 -0 -0 -0 -0 -0 -0 -0 -0 -0 -0 -0 -0 -0 -0 -0 -0 -0 -0 -0 -0
-0 -0 -0 -0 -0 -0 -0 -0 -0 -0 -0 -0 -0 -0 -0 -0 -0 -0 -0 -0 -0 -0 -0 -0 -0 -0 -0 -0 -0 -0 -0 -0 -0 -0 -0 -0 -0 -0 -0 -0 -0 -0 -0 -0 -0 -3 -0
-0 -0 -0 -0 -0 -0 -0 -0 -0 -0 -0 -0 -0 -0 -0 -0 -0 -0 -0 -0 -0 -0 -0 -0 -0 -0 -0 -0 -0 -0 -0 -0 -0 -0 -0 -0 -0 -0 -0 -0 -0 -0 -0 -0 -0 -0 -0
-0 -0 -0 -0 -0 -0 -0 -0 -0 -0 -0 -0 -0 -0 -0 -0 -0 -0 -0 -0 -0 -0 -0 -0 -0 -0 -0 -0 -0 -0 -0 -0 -0 -0 -0 -0 -0 -0 -0 -0 -0 -0 -0 -0 -0 -0 -0
-0 -0 -0 -0 -0 -0 -0 -0 -0 -0 -0 -0 -0 -0 -0 -0 -0 -0 -0 -0 -0 -0 -0 -0 -0 -0 -0 -0 -0 -0 -0 -0 -0 -0 -0 -0 -0 -0 -0 -0 -0 -0 -0 -0 -0 -0 -2
-0 -0 -0 -0 -0 -0 -0 -0 -0 -0 -0 -0 -0 -0 -0 -0 -0 -0 -0 -0 -0 -0 -0 -0 -0 -0 -0 -0 -0 -0 -0 -0 -0 -0 -0 -0 -0 -0 -0 -0 -0 -0 -0 -0 -0 -0 -0
-0 -0 -0 -0 -0 -0 -0 -0 -0 -0 -0 -0 -0 -0 -0 -0 -0 -0 -0 -0 -0 -0 -0 -0 -0 -0 -0 -0 -0 -0 -0 -0 -0 -0 -0 -0 -0 -0 -0 -0 -0 -0 -0 -0 -0 -0 -0
-0 -0 -0 -0 -0 -0 -0 -0 -0 -0 -0 -0 -0 -0 -0 -0 -0 -0 -0 -0 -0 -0 -0 -0 -0 -0 -0 -0 -0 -0 -0 -0 -0 -0 -0 -0 -0 -0 -0 -0 -0 -0 -0 -0 -0 -0 -0
-0 -0 -0 -0 -0 -0 -0 -0 -0 -0 -0 -0 -0 -0 -0 -0 -0 -0 -0 -0 -0 -0 -0 -0 -0 -0 -0 -0 -0 -0 -0 -0 -0 -0 -0 -0 -0 -0 -0 -0 -0 -0 -0 -0 -0 -0 -0
-0 -0 -0 -0 -0 -0 -0 -0 -0 -0 -0 -0 -0 -0 -0 -0 -0 -0 -0 -0 -0 -0 -0 -0 -0 -0 -0 -0 -0 -0 -0 -0 -0 -0 -0 -0 -0 -0 -0 -0 -0 -0 -0 -0 -0 -0 -0
-0 -0 -0 -0 -0 -0 -0 -0 -0 -0 -0 -0 -0 -0 -0 -0 -0 -0 -0 -0 -0 -0 -0 -0 -0 -0 -0 -0 -0 -0 -0 -0 -0 -0 -0 -0 -0 -0 -0 -0 -0 -0 -0 -0 -0 -0 -0
-0 -0 -0 -0 -0 -0 -0 -0 -0 -0 -0 -0 -0 -0 -0 -0 -0 -0 -0 -0 -0 -0 -0 -0 -0 -0 -0 -0 -0 -0 -0 -0 -0 -0 -0 -0 -0 -0 -0 -0 -0 -0 -0 -0 -0 -0 -0
-0 -0 -0 -0 -0 -0 -0 -0 -0 -0 -0 -0 -0 -0 -0 -0 -0 -0 -0 -0 -0 -0 -0 -0 -0 -0 -0 -0 -0 -0 -0 -0 -0 -0 -0 -0 -0 -0 -0 -0 -0 -0 -0 -0 -0 -0 -0
-0 -0 -0 -0 -0 -0 -0 -0 -0 -0 -0 -0 -0 -0 -0 -0 -0 -0 -0 -0 -0 -0 -0 -0 -0 -0 -0 -0 -0 -0 -0 -0 -0 -0 -0 -0 -0 -0 -0 -0 -0 -0 -0 -0 -0 -0 -0
-0 -0 -0 -0 -0 -0 -0 -0 -0 -0 -0 -0 -0 -0 -0 -0 -0 -0 -0 -0 -0 -0 -0 -0 -0 -0 -0 -0 -0 -0 -0 -0 -0 -0 -0 -0 -0 -0 -0 -0 -0 -0 -0 -0 -0 -0 -0
-0 -0 -0 -0 -0 -0 -0 -0 -0 -0 -0 -0 -0 -0 -0 -0 -0 -0 -0 -0 -0 -0 -0 -0 -0 -0 -0 -0 -0 -0 -0 -0 -0 -0 -0 -0 -0 -0 -0 -0 -0 -0 -0 -0 -0 -0 -0
-0 -0 -0 -0 -0 -0 -0 -0 -0 -0 -0 -0 -0 -0 -0 -0 -0 -0 -0 -0 -0 -0 -0 -0 -0 -0 -0 -0 -0 -0 -0 -0 -0 -0 -0 -0 -0 -0 -0 -0 -0 -0 -0 -0 -0 -0 -0
-20 -0 -0 -0 -0 -0 -0 -0 -0 -0 -0 -0 -0 -0 -0 -0 -0 -0 -0 -0 -0 -0 -0 -0 -0 -0 -0 -0 -0 -0 -0 -0 -0 -0 -0 -0 -0 -0 -0 -0 -0 -0 -0 -0 -0 -0 -0
Wind_Speed
20 20 21 21 21 20 18 16 14 14 15 14 13 10 8 7 7 7 9 12 14 16 18 23 26 22 22 27 31 33 33 33 25 23 26 23 27 22 22 22 22 21 23 23 22 20 19
17 18 19 19 18 17 16 14 13 13 13 12 9 7 6 7 7 8 9 11 18 20 20 22 26 29 27 29 33 34 33 30 28 25 27 28 25 22 23 23 24 23 19 21 24 21 22
14 16 16 16 15 14 12 11 10 9 8 6 6 7 8 8 8 9 20 22 21 21 21 21 21 21 34 31 33 35 31 32 28 27 25 25 30 28 23 22 26 21 20 23 29 29 25
9 11 11 11 11 10 9 7 5 6 6 7 8 9 9 10 13 22 22 22 24 24 22 22 23 25 25 34 33 36 34 28 31 29 28 29 29 31 28 25 25 28 24 32 30 32 30
10 10 10 11 11 10 8 7 7 8 9 10 11 13 15 18 22 23 22 22 22 26 28 26 24 21 25 33 35 33 36 28 24 27 33 28 29 32 36 30 29 32 35 38 37 34 36
13 12 13 13 13 12 10 10 10 11 12 14 15 17 21 22 22 22 21 24 27 23 20 21 31 21 30 29 36 36 35 36 28 24 25 34 30 34 40 40 40 42 41 41 44 41 38
16 15 15 16 16 15 14 14 14 15 16 17 18 19 25 25 22 21 18 18 20 26 32 30 29 26 26 26 32 37 34 36 33 32 31 34 39 41 39 39 35 38 43 49 43 36 40
18 18 18 19 18 18 18 18 18 18 18 19 20 22 23 23 27 19 18 18 18 20 27 29 32 30 27 26 33 38 36 29 37 39 30 34 41 36 36 39 41 44 47 47 40 37 42
19 19 20 20 21 21 20 19 19 18 19 20 22 25 24 21 20 25 22 20 19 20 22 25 27 32 25 30 35 40 36 29 37 41 40 39 34 36 40 42 48 47 44 47 46 42 33
21 21 22 23 23 23 23 23 22 21 21 24 25 26 28 18 21 20 21 19 18 18 21 18 19 21 11 21 29 37 30 28 31 37 33 35 34 41 42 45 46 46 44 42 39 33 32
22 23 23 24 25 24 24 24 24 23 23 24 26 28 25 24 20 21 19 17 18 17 22 10 19 18 30 30 20 39 29 32 35 37 32 34 38 41 45 45 39 38 41 37 29 22 23
23 24 24 25 25 26 26 24 24 23 22 25 27 28 21 21 22 20 17 20 18 21 24 18 19 22 28 31 29 26 38 29 29 31 37 32 32 34 41 38 33 35 38 25 23 19 26
25 25 25 26 26 26 27 26 25 23 21 22 22 28 26 20 17 15 19 19 21 26 15 18 16 17 24 26 28 29 34 43 40 39 42 34 36 32 41 39 33 41 37 28 25 23 25
25 25 25 25 25 26 27 27 26 23 20 15 17 21 24 24 16 19 19 20 26 20 20 16 16 18 22 26 26 32 30 35 39 37 36 43 42 40 37 32 33 34 29 26 22 25 22
26 25 25 26 26 26 27 28 26 23 19 19 17 17 7 6 14 17 20 24 22 20 16 14 17 21 22 24 25 28 32 32 35 37 38 40 37 31 33 27 32 31 34 20 16 15 17
26 26 25 26 27 27 28 28 25 23 20 19 18 18 5 7 15 19 22 24 20 17 16 18 22 21 24 26 27 28 31 28 31 32 29 34 38 33 31 27 26 28 24 28 22 20 17
26 27 27 27 28 29 29 28 25 23 20 18 18 19 7 12 16 15 23 22 20 17 17 20 20 22 23 26 26 27 29 27 28 30 29 31 33 38 30 33 32 30 27 24 17 19 18
26 28 28 29 29 30 29 29 26 23 20 19 19 19 9 16 18 20 22 22 20 19 20 19 20 21 23 24 25 27 28 27 26 28 31 30 30 39 32 26 24 26 24 23 22 18 16
27 28 29 29 30 31 30 29 26 22 21 18 19 19 9 16 20 22 22 21 19 17 18 18 20 21 22 24 25 25 25 22 24 26 30 30 33 40 35 28 26 26 23 21 16 16 17
27 28 29 29 31 30 29 29 27 22 20 16 16 17 12 16 21 23 21 19 18 18 19 20 20 20 22 24 24 24 25 23 22 23 25 26 30 32 35 30 26 26 22 20 20 19 15
28 28 28 29 30 29 29 29 28 22 18 15 14 17 15 19 17 20 19 18 18 17 17 18 20 22 22 24 25 24 24 24 23 22 24 26 30 28 26 24 22 22 21 18 19 15 16
27 28 28 29 29 29 29 29 28 24 17 14 14 16 16 19 18 18 16 17 17 17 16 18 20 20 20 23 24 24 23 23 24 23 25 25 29 29 29 27 23 23 20 17 15 14 11
26 27 27 28 29 28 29 29 28 26 17 14 13 15 16 16 16 16 15 16 15 17 16 17 18 20 20 20 19 18 16 16 18 22 25 25 28 31 34 30 27 30 24 20 17 14 13
26 26 26 27 28 27 28 28 26 25 20 14 14 15 16 16 16 16 16 16 17 15 17 16 17 18 19 17 19 20 19 18 17 17 17 24 27 27 31 30 38 26 20 18 17 13 11
24 25 25 26 26 26 26 26 25 24 21 17 15 15 15 15 15 16 16 16 17 17 16 15 16 16 17 20 22 25 24 23 22 21 19 17 25 28 31 32 24 24 22 21 21 18 14
23 23 24 25 25 25 25 25 24 24 21 17 18 17 16 15 11 14 14 14 15 16 17 16 16 16 18 21 23 26 27 25 26 25 21 20 21 24 28 34 35 25 21 19 20 25 20
21 22 23 23 24 24 24 24 24 24 22 18 18 19 17 16 13 14 14 13 15 17 18 16 16 18 18 21 23 25 25 22 26 27 26 25 24 25 25 27 23 17 19 18 29 26 20
19 20 21 22 22 23 23 23 24 24 23 19 18 20 17 17 14 13 14 15 15 16 18 16 17 16 18 20 21 23 22 21 22 21 24 25 27 27 25 28 31 16 19 22 17 15 14
17 18 19 21 21 22 22 23 24 24 23 20 19 20 18 17 15 15 15 15 15 14 16 15 14 16 16 19 18 20 21 20 20 25 19 24 19 24 19 21 16 14 13 11 12 12 13
Wind_Direction
343 341 340 338 336 333 328 320 311 313 318 317 311 300 281 259 239 252 289 318 334 339 350 3 9 25 17 14 356 324 328 347 5 10 1 3 355 355 348 345 345 342 333 340 339 342 343
337 338 338 336 333 329 325 320 316 315 313 311 301 277 261 255 249 252 260 287 351 9 3 10 19 24 16 5 347 337 345 356 2 11 10 12 1 5 354 348 346 339 350 344 337 336 337
335 336 336 335 332 327 322 316 312 308 298 289 282 280 274 262 254 267 15 30 26 25 26 23 25 27 18 9 4 354 360 12 17 16 16 16 10 5 356 349 347 346 339 333 332 327 325
335 335 335 333 330 325 318 308 295 293 293 294 289 290 287 284 319 30 37 35 29 27 35 35 32 28 30 6 12 1 357 20 22 24 27 21 16 8 357 347 345 338 333 321 324 325 320
337 338 338 337 335 330 321 311 307 306 306 306 306 309 317 342 22 34 38 41 42 35 39 34 25 34 20 350 358 352 10 21 29 25 17 15 10 7 357 349 337 336 321 319 316 322 314
339 339 339 338 337 332 326 320 316 315 315 318 323 327 343 7 16 29 51 51 29 30 37 36 20 31 15 19 7 9 10 11 25 25 15 9 11 4 356 350 331 325 322 317 312 314 313
343 341 341 340 339 336 331 327 325 325 327 329 330 336 21 10 20 27 58 54 41 31 32 39 33 42 34 39 20 360 13 14 22 22 14 11 2 355 353 350 343 332 323 315 316 313 311
344 343 342 342 341 339 336 333 332 331 332 333 337 343 42 47 18 47 44 47 65 76 50 46 38 45 46 40 15 353 1 27 18 12 17 10 4 4 358 353 345 337 327 321 320 318 310
344 343 342 342 342 340 337 333 330 329 330 334 341 349 22 50 55 32 50 69 98 91 69 60 53 37 45 31 28 0 21 30 21 16 16 13 10 5 359 352 344 340 332 324 316 318 315
345 343 343 343 342 341 339 337 332 330 332 343 348 355 8 59 52 67 69 100 106 107 73 72 66 58 37 59 36 31 37 35 27 19 18 15 12 3 358 353 348 343 342 333 326 323 316
344 344 343 342 341 339 337 334 334 331 335 343 350 360 29 45 65 67 89 114 108 109 63 94 67 73 43 46 47 24 36 34 27 22 21 13 9 7 3 358 357 354 350 345 344 343 337
343 342 341 341 340 340 338 333 331 328 328 349 1 358 52 58 62 81 115 113 110 84 65 76 71 53 41 36 39 39 32 38 34 24 23 22 18 14 7 6 9 2 1 10 18 16 346
342 340 339 338 336 336 336 333 330 325 316 17 41 28 33 74 95 123 116 116 86 67 100 74 70 62 50 41 37 34 29 24 23 15 15 17 16 16 13 12 15 10 14 13 12 11 360
341 339 337 336 333 332 332 331 327 320 306 39 56 55 46 28 112 113 118 98 67 88 80 83 73 65 52 42 38 30 28 24 25 23 19 15 10 16 15 21 17 21 28 27 16 9 10
341 338 336 335 333 332 331 330 325 318 306 36 67 76 85 243 134 126 110 75 82 89 91 85 73 54 46 39 36 31 28 26 25 25 22 16 17 21 21 27 27 25 28 33 34 37 31
341 338 335 334 334 332 332 332 325 320 316 48 76 97 253 219 132 123 92 83 94 101 92 75 56 50 38 33 32 31 28 30 26 28 30 23 19 23 26 32 34 35 33 31 38 30 22
339 339 336 335 335 335 334 332 327 323 326 64 80 78 197 166 135 91 82 90 96 99 88 63 56 48 40 34 34 32 29 31 30 27 31 27 27 22 30 30 30 29 34 38 47 44 34
338 339 337 337 336 337 335 334 330 326 338 45 78 67 237 130 114 110 91 91 94 85 72 65 58 51 42 36 35 33 29 31 34 31 27 29 28 21 28 38 41 38 39 38 38 36 40
338 339 338 337 337 338 336 335 331 326 344 49 40 82 183 124 91 90 95 89 85 83 72 62 53 48 42 37 33 34 31 35 34 32 30 30 27 22 28 33 36 37 39 41 46 49 46
339 339 337 336 338 337 336 336 333 325 335 13 35 62 304 359 104 90 85 83 78 76 67 58 52 49 43 39 36 33 30 34 32 36 37 36 30 29 24 20 26 31 37 42 45 45 45
340 339 337 337 337 336 337 337 335 325 324 349 332 47 112 88 75 86 83 81 74 68 67 60 50 45 41 36 33 33 33 30 36 38 36 33 27 28 25 22 29 33 37 42 43 51 46
338 338 336 338 337 336 338 339 338 332 341 343 16 58 32 62 85 83 83 77 72 68 65 55 48 45 42 36 33 28 30 33 34 37 32 33 28 27 24 32 36 34 37 42 47 50 41
335 337 334 337 338 336 339 341 341 341 339 344 341 28 47 89 82 78 79 77 71 66 62 56 51 43 38 35 33 30 32 34 34 31 30 31 30 26 30 33 38 37 41 46 50 50 41
332 332 333 336 338 337 339 342 343 347 352 350 342 9 31 58 72 75 73 68 63 64 54 52 49 42 42 36 33 38 39 40 38 35 37 32 31 33 28 32 34 41 47 48 42 36 34
328 327 331 334 337 336 339 341 341 346 352 358 335 346 10 34 59 65 67 59 54 51 50 51 49 47 42 38 34 31 32 34 37 38 39 44 34 31 31 28 28 41 47 43 40 25 27
322 321 330 335 335 334 337 338 339 341 345 353 343 341 359 29 75 50 55 58 49 47 44 46 47 46 44 37 34 29 28 29 31 32 41 43 36 33 31 29 32 41 45 52 45 33 48
318 320 331 336 333 333 334 335 335 339 341 356 340 342 347 0 30 35 40 50 45 40 35 39 40 39 42 35 31 30 29 33 28 27 29 30 31 28 30 30 33 45 49 51 37 37 32
327 328 334 334 332 332 330 330 334 337 338 354 348 341 343 351 15 28 35 34 36 37 31 40 36 40 38 35 35 31 31 30 28 28 28 28 30 31 35 32 31 61 47 42 40 29 27
337 340 335 335 334 327 326 331 334 335 337 352 343 340 344 349 2 15 24 28 29 36 32 40 38 39 43 36 34 34 25 29 26 22 35 27 34 29 35 31 45 54 40 37 30 24 23